Regional Weather Roundup
Issued by NWS

Home | Current Version | Previous Version | Graphics & Text | Print | Product List | Glossary On
Versions: 1 2 3 4 5 6 7 8 9 10 11 12 13 14 15 16 17 18 19 20 21 22 23 24 25 26 27 28 29 30 31 32 33 34 35 36 37 38 39 40 41 42 43 44 45 46 47 48 49 50
000
ASUS43 KTOP 282008
RWRKS

WEATHER ROUNDUP FOR KANSAS
NATIONAL WEATHER SERVICE GOODLAND KS
300 PM CDT SAT MAR 28 2015

NOTE:  "FAIR" INDICATES FEW OR NO CLOUDS BELOW 12,000 FEET WITH NO
SIGNIFICANT WEATHER AND/OR OBSTRUCTIONS TO VISIBILITY.

KSZ001>006-013>018-027>032-041>047-282100-
NORTHWEST KANSAS

CITY           SKY/WX    TMP DP  RH WIND       PRES   REMARKS
GOODLAND       SUNNY     79  26  14 NW8       29.95F
HAYS           SUNNY     70  39  32 SE9       29.99F
HILL CITY      SUNNY     72  37  28 SE14      29.97F
RUSSELL        SUNNY     70  38  31 E13       29.98F
$$

KSZ061>065-074>080-084>089-282100-
SOUTHWEST KANSAS

CITY           SKY/WX    TMP DP  RH WIND       PRES   REMARKS
DODGE CITY     SUNNY     76  36  23 SE8       29.98F
ELKHART          N/A     82  34  17 SE8         N/A
GARDEN CITY    SUNNY     77  35  21 SE10      29.97F
GREAT BEND     SUNNY     72  39  30 SE14      29.98F
LIBERAL        SUNNY     81  36  19 CALM      29.99F
PRATT          SUNNY     70  36  28 SE10G17   30.00F
$$

KSZ066>073-081>083-090>101-282100-
SOUTHEAST KANSAS

CITY           SKY/WX    TMP DP  RH WIND       PRES   REMARKS
CHANUTE        SUNNY     61  40  45 SE13      30.07F
COFFEYVILLE    SUNNY     65  41  41 S9        30.04F
HUTCHINSON     SUNNY     69  39  33 E8G18     30.01F
MEDICINE LODGE   N/A     76  40  27 E9        29.97F
NEWTON         SUNNY     64  37  36 SE12      30.04F
PARSONS        SUNNY     65  42  43 VRB6      30.06F
WICHITA INTL   SUNNY     69  40  34 E12       30.00F
WICHITA JABRA  SUNNY     68  39  34 SE9       30.01F
WICHITA MCCONL SUNNY     71  40  33 NE10G17   30.00F
WINFIELD       SUNNY     70  42  36 SE7       30.00F
$$

KSZ007>012-019>026-033>040-048>060-102>105-282100-
NORTHEAST KANSAS

CITY           SKY/WX    TMP DP  RH WIND       PRES   REMARKS
CONCORDIA      SUNNY     62  34  35 E10       30.02F
EMPORIA        SUNNY     59  35  40 E14G22    30.06F
LAWRENCE       SUNNY     54  31  41 SE16G24   30.13F
MANHATTAN      SUNNY     60  34  37 SE10G18   30.05F
MARYSVILLE     SUNNY     55  34  44 SE15G21   30.06F
OLATHE IND     SUNNY     51  30  44 SE13G22   30.14F
OLATHE EXE     SUNNY     51  31  46 SE13G21   30.13F
SALINA         SUNNY     65  37  35 E12G18    30.02F
TOPEKA BILLARD SUNNY     56  32  40 SE15G21   30.10F
TOPEKA FORBES  SUNNY     57  32  38 E13G21    30.08F
$$


USA.gov is the U.S. government's official web portal to all federal, state and local government web resources and services.